Regional Weather Roundup
Issued by NWS Sioux Falls, SD

Home | Current Version | Previous Version | Text Only | Print | Product List | Glossary Off
Versions: 1 2 3 4 5 6 7 8 9 10 11 12 13 14 15 16 17 18 19 20 21 22 23 24 25 26 27 28 29 30 31 32 33 34 35 36 37 38 39 40 41 42 43 44 45 46 47 48 49 50

000
ASUS43 KFSD 221110
RWRFSD

WEATHER ROUNDUP FOR SE SOUTH DAKOTA/SW MINNESOTA/NW IOWA
NATIONAL WEATHER SERVICE SIOUX FALLS SD
500 AM CST WED FEB 22 2017

NOTE: "FAIR" INDICATES FEW OR NO CLOUDS BELOW 12,000 FEET WITH NO
SIGNIFICANT WEATHER AND OR OBSTRUCTIONS TO VISIBILITY.


SDZ038>040-050-052>070-221200-
SOUTHEAST SOUTH DAKOTA

CITY           SKY/WX    TMP DP  RH WIND       PRES   REMARKS
BROOKINGS      PTCLDY    39  36  89 CALM      29.60R
CHAMBERLAIN    CLOUDY    46  39  76 W9        29.67R
HURON          MOCLDY    38  37  97 W10       29.63R
MADISON        FAIR      39  39 100 S6        29.60F
MITCHELL       PTCLDY    43  36  76 W12       29.63R
SIOUX FALLS    PTCLDY    35  33  92 E5        29.60F
WINNER         FAIR      49  36  61 SW7       29.68F
YANKTON        CLEAR     46  34  61 NW8       29.60F
$$

MNZ071-072-080-081-089-090-097-098-221200-
SOUTHWEST MINNESOTA

CITY           SKY/WX    TMP DP  RH WIND       PRES   REMARKS
FAIRMONT       PTCLDY    39  34  82 S6        29.62F
JACKSON        CLEAR     41  32  70 S8        29.61F
LUVERNE        PTCLDY    36  32  87 CALM      29.61F
MARSHALL       MOCLDY    42  38  85 NW3       29.58S
MONTEVIDEO     CLOUDY    39  39 100 N3        29.62R
PIPESTONE      PTCLDY    43  34  70 S6        29.61S
REDWOOD FALLS  MOCLDY    39  36  89 SW7       29.58R
TRACY          PTCLDY    46  40  80 SW10      29.59S
WINDOM         CLEAR     39  36  87 CALM      29.61S
WORTHINGTON    CLEAR     43  34  70 SW8       29.62F
$$

IAZ001>003-012>014-020>022-031-032-NEZ013-014-SDZ071-221200-
NORTHWEST IOWA

CITY           SKY/WX    TMP DP  RH WIND       PRES   REMARKS
CHEROKEE       CLEAR     43  34  69 S7        29.64F
DENISON        CLEAR     46  36  66 S9        29.66S
ESTHERVILLE    CLEAR     37  34  89 SW8       29.63S
LE MARS        CLEAR     37  34  87 S5        29.64F
ORANGE CITY    CLEAR     37  36  93 S7        29.62F
SHELDON        CLOUDY    36  36 100 SE8       29.61F
SIOUX CITY     CLEAR     35  32  88 SE8       29.65S WCI  29
SPENCER        CLEAR     36  33  89 CALM      29.64R
STORM LAKE     CLEAR     45  36  70 SW13      29.65F
$$

ABBREVIATIONS USED IN REMARKS
   TC - TEMPERATURE IN CELSIUS
  WCI - WIND CHILL INDEX
   HX - HEAT INDEX
  VSB - VISIBILITY




USA.gov is the U.S. government's official web portal to all federal, state and local government web resources and services.